STARLINK-37915, 69722

Orbit data source: Space-Track

STARLINK-37915, 69722 is a payload satellite owned by SpaceX/Seattle (US) in SSO that was launched on Sun, 28 Jun 2026 UTC via an FALCON 9 launch vehicle from the Air Force Western Test Range (AFWTR). Payload-class satellites include a variety of spacecraft equipped with specific instruments for various scientific and technological missions. These include communications satellites like Starlink; space stations such as the ISS; scientific satellites like the Hubble; Earth observation satellites from companies like Planet Labs, Umbra, and HawkEye 360; GPS; miniature CubeSats for education and research; and military/defense satellites.

Loading next visibility...
Identifier
69722, 2026-147U
Orbit
SSO
Country
Flag of USUS
Related business
Manufacturer
SpaceX/Seattle
Mission
Operational Commercial Communications
Bus & Motor
STARLINK V2MO, Unknown motor
Mass
575 kg wet, ~530 kg dry
Launch date (UTC)
2026-06-28 (2 months ago)
Launch vehicle
FALCON 9
Launch site
Air Force Western Test Range (AFWTR)
Object type
Payload
Rocket body
Debris
Shape & HBR
Box + 1 Pan, 17.7 m
Radar Cross Section
41.120 m², Large (>1 m²)

Expand to show TLE details & history
Last TLE update: 12 hours ago

TLE from 12 hours ago
0 STARLINK-37915
1 69722U 26147U   26236.85786683  .00021003  00000-0  65032-3 0  9991
2 69722  97.2834 273.6456 0000671 227.2865 132.8321 15.33482971 10150
Epoch: 2026-08-24T20:35Z
TLE epoch observation values (Epoch: 2026-08-24T20:35:19.694Z)
Latitude
-0.00004°
Longitude
-8.32°
Altitude
468.855 km
Speed
7.632 km/s
True Right ascension
18h 14m 34s
True Declination
0° 00' 00"
Sunlit
Object was in full shadow at epoch
Visualization orbit readout
Latitude
Unknown
Longitude
Unknown
Altitude
Unknown
Speed
Unknown
Apparent Right ascension
Unknown
Apparent Declination
Unknown
Sunlit
N/A
Visualization observer readout
Local Sidereal Time
00:11:15
Azimuth
Unknown
Elevation
Unknown
Doppler factor
Unknown
Orbital elements
Apogee altitude
462.832 km
Perigee altitude
461.914 km
Semi-major axis
6,840.51 km
Eccentricity
0.00007
Inclination
97.2834°
RAAN
273.6456°
Arg. of periapsis
227.2865°
True anomaly
132.83774°
Mean anomaly
132.8321°
Eccentric anomaly
132.83492°
Mean motion
3.83628 °/min
Orbital period
93.84 mins
BSTAR
0.00065032
Loading maneuver chart data...
Computing Atmospheric mass density...
Loading historical data...
Loading historical data...
Loading historical data...
Loading historical data...
Loading historical data...
Loading historical data...
Loading historical data...

Documentation

Showing up to 5 results
|